Blacksburg, VA

8:10 AM EDT on June 26, 2017 (GMT -0400)
Virginia Tech

Weather History for KBCB - September, 2013

Change the Weather History Date:

Sunday, September 22, 2013

  Actual Average Record
Temperature  
Mean Temperature 58 °F 61 °F  
Max Temperature 69 °F 73 °F 88 °F (1978)
Min Temperature 46 °F 49 °F 33 °F (1962)
Degree Days  
Heating Degree Days 7 5  
Month to date heating degree days 57 57  
Since 1 July heating degree days 80 75  
Cooling Degree Days 0 1  
Month to date cooling degree days 55 51  
Year to date cooling degree days 561 563  
Growing Degree Days 8 (Base 50)    
Moisture  
Dew Point 54 °F    
Average Humidity 81    
Maximum Humidity 100    
Minimum Humidity 61    
Precipitation  
Precipitation 0.00 in 0.10 in 2.00 in (1979)
Month to date precipitation 1.10 2.29  
Year to date precipitation 40.65 31.48  
Snow  
Snow 0.00 in - - ()
Month to date snowfall 0.0  
Since 1 July snowfall 0.0  
Since 1 September snowfall 0.0  
Snow Depth 0.00 in    
Sea Level Pressure  
Sea Level Pressure 29.93 in    
Wind  
Wind Speed 3 mph (NW)    
Max Wind Speed 10 mph    
Max Gust Speed -    
Visibility 7 miles    
Events Fog    
T = Trace of Precipitation, MM = Missing Value Source: NWS Daily Summary

Daily Weather History Graph

Daily Weather History Graph

Search for Another Location

Airport or City:

Trip Planner

Search our weather history database for the weather conditions in past years. The results will help you decide how hot, cold, wet, or windy it might be!

Date:

Astronomy

Sep. 22, 2013 Rise Set
Actual Time 7:09 AM EDT 7:18 PM EDT
Civil Twilight 6:43 AM EDT 7:44 PM EDT
Nautical Twilight 6:13 AM EDT 8:14 PM EDT
Astronomical Twilight 5:42 AM EDT 8:45 PM EDT
Moon 9:12 PM EDT (9/22) 10:23 AM EDT (9/22)
Length of Visible Light 13h 00m
Length of Day
12h 08m
Waning Gibbous, 89% of the Moon is Illuminated
Sep 22
Waning Gibbous
Sep 26
Last Quarter
Oct 4
New
Oct 11
First Quarter
Oct 18
Full

Hourly Weather History & Observations

Time (EDT) Temp. Dew Point Humidity Pressure Visibility Wind Dir Wind Speed Gust Speed Precip Events Conditions
12:15 AM 55.4 °F 55.4 °F 100% 29.86 in 1.2 mi Calm Calm - N/A   Mostly Cloudy
12:35 AM 55.4 °F 55.4 °F 100% 29.86 in 2.5 mi WNW 3.5 mph - N/A   Scattered Clouds
12:55 AM 53.6 °F 53.6 °F 100% 29.86 in 0.8 mi Calm Calm - N/A   Mist
1:15 AM 53.6 °F 53.6 °F 100% 29.86 in 1.0 mi Calm Calm - N/A   Mostly Cloudy
1:35 AM 53.6 °F 53.6 °F 100% 29.86 in 1.0 mi Calm Calm - N/A   Mist
1:55 AM 53.6 °F 53.6 °F 100% 29.86 in 0.2 mi Calm Calm - N/A Fog Fog
2:15 AM 51.8 °F 51.8 °F 100% 29.86 in 0.2 mi Calm Calm - N/A Fog Fog
2:35 AM 51.8 °F 51.8 °F 100% 29.86 in 0.2 mi Calm Calm - N/A Fog Fog
2:55 AM 51.8 °F 51.8 °F 100% 29.86 in 0.2 mi Calm Calm - N/A Fog Fog
3:15 AM 51.8 °F 51.8 °F 100% 29.86 in 0.2 mi Calm Calm - N/A Fog Fog
3:35 AM 51.8 °F 51.8 °F 100% 29.87 in 0.2 mi Calm Calm - N/A Fog Fog
3:55 AM 51.8 °F 51.8 °F 100% 29.87 in 0.2 mi Calm Calm - N/A Fog Fog
4:15 AM 50.0 °F 50.0 °F 100% 29.87 in 1.5 mi Calm Calm - 0.01 in   Mostly Cloudy
4:35 AM 48.2 °F 48.2 °F 100% 29.88 in 0.5 mi Calm Calm - 0.01 in Fog Fog
4:55 AM 48.2 °F 48.2 °F 100% 29.88 in 0.5 mi Calm Calm - 0.01 in Fog Fog
5:15 AM 48.2 °F 48.2 °F 100% 29.88 in 1.2 mi Calm Calm - N/A   Mostly Cloudy
5:35 AM 48.2 °F 48.2 °F 100% 29.89 in 0.2 mi Calm Calm - N/A Fog Fog
5:55 AM 48.2 °F 48.2 °F 100% 29.90 in 0.5 mi Calm Calm - N/A Fog Fog
6:15 AM 48.2 °F 48.2 °F 100% 29.90 in 0.8 mi Calm Calm - N/A   Overcast
6:35 AM 46.4 °F 46.4 °F 100% 29.90 in 0.5 mi Calm Calm - N/A Fog Fog
6:55 AM 46.4 °F 46.4 °F 100% 29.90 in 0.8 mi Calm Calm - N/A   Overcast
7:15 AM 48.2 °F 48.2 °F 100% 29.91 in 1.8 mi NNW 3.5 mph - N/A   Overcast
7:35 AM 50.0 °F 50.0 °F 100% 29.91 in 4.0 mi Calm Calm - N/A   Overcast
7:55 AM 51.8 °F 51.8 °F 100% 29.92 in 7.0 mi Calm Calm - N/A   Overcast
8:15 AM 53.6 °F 53.6 °F 100% 29.92 in 7.0 mi Calm Calm - N/A   Overcast
8:35 AM 55.4 °F 55.4 °F 100% 29.93 in 10.0 mi Calm Calm - N/A   Overcast
8:55 AM 55.4 °F 55.4 °F 100% 29.93 in 10.0 mi Calm Calm - N/A   Overcast
9:15 AM 55.4 °F 55.4 °F 100% 29.94 in 10.0 mi Calm Calm - N/A   Overcast
9:35 AM 57.2 °F 57.2 °F 100% 29.94 in 10.0 mi Calm Calm - N/A   Overcast
9:55 AM 57.2 °F 57.2 °F 100% 29.95 in 10.0 mi North 3.5 mph - N/A   Mostly Cloudy
10:15 AM 57.2 °F 57.2 °F 100% 29.95 in 10.0 mi NNW 4.6 mph - N/A   Scattered Clouds
10:35 AM 59.0 °F 59.0 °F 100% 29.95 in 10.0 mi Calm Calm - N/A   Overcast
10:55 AM 60.8 °F 60.8 °F 100% 29.95 in 10.0 mi North 4.6 mph - N/A   Scattered Clouds
11:15 AM 60.8 °F 60.8 °F 100% 29.94 in 10.0 mi North 5.8 mph - N/A   Mostly Cloudy
11:35 AM 62.6 °F 59.0 °F 88% 29.94 in 10.0 mi NW 3.5 mph - N/A   Overcast
11:55 AM 64.4 °F 59.0 °F 83% 29.94 in 10.0 mi WNW 6.9 mph - N/A   Mostly Cloudy
12:15 PM 62.6 °F 57.2 °F 82% 29.94 in 10.0 mi Calm Calm - N/A   Mostly Cloudy
12:35 PM 64.4 °F 57.2 °F 77% 29.95 in 10.0 mi WNW 4.6 mph - N/A   Overcast
12:55 PM 66.2 °F 57.2 °F 73% 29.94 in 10.0 mi Calm Calm - N/A   Mostly Cloudy
1:15 PM 66.2 °F 57.2 °F 73% 29.94 in 10.0 mi NW 4.6 mph - N/A   Mostly Cloudy
1:35 PM 68.0 °F 55.4 °F 64% 29.94 in 10.0 mi WNW 8.1 mph - N/A   Overcast
1:55 PM 66.2 °F 55.4 °F 68% 29.93 in 10.0 mi NW 9.2 mph - N/A   Mostly Cloudy
2:15 PM 69.8 °F 55.4 °F 60% 29.93 in 10.0 mi NNW 9.2 mph - N/A   Mostly Cloudy
2:35 PM 69.8 °F 55.4 °F 60% 29.92 in 10.0 mi NNW 8.1 mph - N/A   Mostly Cloudy
2:55 PM 68.0 °F 55.4 °F 64% 29.92 in 10.0 mi NW 4.6 mph - N/A   Mostly Cloudy
3:15 PM 69.8 °F 55.4 °F 60% 29.91 in 10.0 mi WNW 6.9 mph - N/A   Mostly Cloudy
3:35 PM 69.8 °F 55.4 °F 60% 29.91 in 10.0 mi NW 6.9 mph - N/A   Overcast
3:55 PM 69.8 °F 55.4 °F 60% 29.91 in 10.0 mi NW 6.9 mph - N/A   Scattered Clouds
4:15 PM 69.8 °F 55.4 °F 60% 29.91 in 10.0 mi NW 5.8 mph - N/A   Mostly Cloudy
4:35 PM 66.2 °F 53.6 °F 64% 29.91 in 10.0 mi NW 5.8 mph - N/A   Scattered Clouds
4:55 PM 66.2 °F 55.4 °F 68% 29.92 in 10.0 mi NW 8.1 mph - N/A   Mostly Cloudy
5:15 PM 68.0 °F 55.4 °F 64% 29.92 in 10.0 mi NNW 6.9 mph - N/A   Scattered Clouds
5:35 PM 66.2 °F 55.4 °F 68% 29.92 in 10.0 mi NNW 4.6 mph - N/A   Scattered Clouds
5:55 PM 66.2 °F 53.6 °F 64% 29.93 in 10.0 mi NNW 10.4 mph - N/A   Scattered Clouds
6:15 PM 64.4 °F 53.6 °F 68% 29.93 in 10.0 mi NNW 9.2 mph - N/A   Scattered Clouds
6:35 PM 64.4 °F 53.6 °F 68% 29.94 in 10.0 mi NW 9.2 mph - N/A   Clear
6:55 PM 62.6 °F 53.6 °F 72% 29.94 in 10.0 mi NW 6.9 mph - N/A   Clear
7:15 PM 62.6 °F 53.6 °F 72% 29.94 in 10.0 mi North 5.8 mph - N/A   Clear
7:35 PM 59.0 °F 53.6 °F 82% 29.95 in 10.0 mi North 3.5 mph - N/A   Clear
7:55 PM 57.2 °F 53.6 °F 88% 29.95 in 10.0 mi NNW 3.5 mph - N/A   Clear
8:15 PM 57.2 °F 53.6 °F 88% 29.96 in 10.0 mi North 5.8 mph - N/A   Clear
8:35 PM 55.4 °F 53.6 °F 94% 29.97 in 10.0 mi Calm Calm - N/A   Clear
8:55 PM 53.6 °F 53.6 °F 100% 29.98 in 10.0 mi North 4.6 mph - N/A   Clear
9:15 PM 55.4 °F 51.8 °F 88% 29.99 in 10.0 mi North 3.5 mph - N/A   Clear
9:35 PM 55.4 °F 53.6 °F 94% 29.99 in 10.0 mi NW 5.8 mph - N/A   Clear
9:55 PM 55.4 °F 51.8 °F 88% 30.00 in 10.0 mi NW 4.6 mph - N/A   Clear
10:15 PM 55.4 °F 51.8 °F 88% 30.01 in 10.0 mi NNW 5.8 mph - N/A   Clear
10:35 PM 53.6 °F 51.8 °F 94% 30.02 in 10.0 mi West 4.6 mph - N/A   Clear
10:55 PM 51.8 °F 51.8 °F 100% 30.02 in 10.0 mi Calm Calm - N/A   Clear
11:15 PM 50.0 °F 50.0 °F 100% 30.02 in 10.0 mi Calm Calm - N/A   Clear
11:35 PM 50.0 °F 50.0 °F 100% 30.02 in 10.0 mi WNW 3.5 mph - N/A   Clear
11:55 PM 51.8 °F 51.8 °F 100% 30.02 in 10.0 mi WNW 3.5 mph - N/A   Clear